Stations météo

réclame
Mon MeteoGroup
Feuchtwangen-Heilbronn, Allemagne (10756): Température de l'air & dewpoint: 10.07.2020 16:00:00 - 16.07.2020 16:00:00 (CEST)Feuchtwangen-Heilbronn, Allemagne (10756): Température de l'air 5cm & Température de l'air -5cm: 10.07.2020 16:00:00 - 16.07.2020 16:00:00 (CEST)Feuchtwangen-Heilbronn, Allemagne (10756): Température de l'air -20cm & Température de l'air -100cm: 10.07.2020 16:00:00 - 16.07.2020 16:00:00 (CEST)Feuchtwangen-Heilbronn, Allemagne (10756): Vitesse du vent & gusts: 10.07.2020 16:00:00 - 16.07.2020 16:00:00 (CEST)Feuchtwangen-Heilbronn, Allemagne (10756): Direction du vent: 10.07.2020 16:00:00 - 16.07.2020 16:00:00 (CEST)Feuchtwangen-Heilbronn, Allemagne (10756): reduced air pressure: 10.07.2020 16:00:00 - 16.07.2020 16:00:00 (CEST)Feuchtwangen-Heilbronn, Allemagne (10756): visibility: 10.07.2020 16:00:00 - 16.07.2020 16:00:00 (CEST)Feuchtwangen-Heilbronn, Allemagne (10756): Ensoleillement: 10.07.2020 16:00:00 - 16.07.2020 16:00:00 (CEST)Feuchtwangen-Heilbronn, Allemagne (10756): Quantités de précipitations: 10.07.2020 16:00:00 - 16.07.2020 16:00:00 (CEST)
Date & Time tt [°C] td [°C] tt 5cm [°C] tt -5cm [°C] tt -20cm [°C] tt -100cm [°C] ff [km/h] ff [knt] fx [km/h] fx [knt] dd ppp [hPa] vv [km] sd [min] rr [mm]
16.07.2020 16:00:00 13,9 13,1 15,1 18,2 18,0 17,6 7 4 10 6 S 1017,5 14 0 0,7
16.07.2020 15:00:00 13,2 12,4 13,7 17,8 18,0 17,6 5 3 9 5 S 1017,7 3,5 0 1,9
16.07.2020 14:00:00 12,7 11,6 13,6 17,8 17,9 17,6 5 3 13 7 SSE 1017,9 3,2 0 0,8
16.07.2020 13:00:00 13,6 12,1 13,8 18,0 17,7 17,6 7 4 11 6 SSE 1017,9 8 0 0,1
16.07.2020 12:00:00 14,2 10,5 13,9 17,5 17,6 17,6 3 2 7 4 SE 1017,7 23 0 0,0
16.07.2020 11:00:00 13,1 10,8 13,0 16,3 17,6 17,6 3 2 7 4 S 1017,8 20 0 0,1
16.07.2020 10:00:00 12,5 11,2 12,9 15,6 17,7 17,6 4 2 13 7 SW 1017,8 21 0 1,0
16.07.2020 09:00:00 12,0 11,4 12,2 15,5 17,8 17,6 7 4 12 7 NW 1017,9 3,6 0 0,4
16.07.2020 08:00:00 12,3 11,4 12,4 15,6 17,9 17,6 5 3 9 5 NNW 1017,3 17 0 0,2
16.07.2020 07:00:00 12,7 12,3 12,9 15,6 18,1 17,6 4 2 7 4 NNW 1017,2 3,9 0 0,0
16.07.2020 06:00:00 12,7 12,0 12,5 15,6 18,2 17,6 3 2 13 7 N 1016,9 13 0 0,4
16.07.2020 05:00:00 13,3 11,8 12,6 15,7 18,3 17,6 9 5 16 9 W 1016,7 17 0 1,5
16.07.2020 04:00:00 13,5 13,0 13,2 15,8 18,5 17,6 3 2 10 6 WSW 1016,6 13 0 0,0
16.07.2020 03:00:00 13,3 13,0 13,0 15,7 18,7 17,6 3 2 10 5 SW 1016,6 10 0 0,0
16.07.2020 02:00:00 13,2 12,8 12,9 15,7 19,0 17,6 5 3 10 5 WSW 1016,8 11 0 0,0
16.07.2020 01:00:00 13,2 12,8 12,6 15,7 19,3 17,6 6 3 13 7 WSW 1016,8 11 0 0,0
16.07.2020 00:00:00 12,3 12,0 9,9 16,1 19,6 17,6 3 2 7 4 W 1016,9 11 0 0,0
15.07.2020 23:00:00 12,5 11,9 10,5 16,7 19,9 17,5 3 2 5 3 SSW 1016,5 15 0 0,0
15.07.2020 22:00:00 13,4 11,3 10,8 17,6 20,1 17,5 0 0 9 5 N 1016,0 33 0 0,0
15.07.2020 21:00:00 15,8 13,2 14,6 18,7 20,2 17,5 5 3 16 9 W 1014,9 31 55 0,0
15.07.2020 20:00:00 16,7 13,7 17,2 19,5 20,2 17,5 12 6 22 12 W 1013,9 49 37 0,0
15.07.2020 19:00:00 16,2 13,4 16,4 20,0 20,2 17,5 15 8 26 14 W 1013,7 37 27 0,1
15.07.2020 18:00:00 15,1 14,5 15,7 19,5 20,3 17,5 9 5 20 11 W 1013,9 20 1 2,8
15.07.2020 17:00:00 15,6 13,8 16,7 19,9 20,3 17,5 9 5 26 14 WSW 1013,8 65 1 0,8
15.07.2020 16:00:00 15,1 14,0 15,5 20,1 20,2 17,5 13 7 20 11 W 1014,2 9 0 2,1
15.07.2020 15:00:00 17,3 14,0 18,8 21,1 20,1 17,5 11 6 21 12 WSW 1013,5 42 9 0,1
15.07.2020 14:00:00 15,4 13,2 15,8 19,8 20,1 17,5 11 6 22 12 W 1014,4 30 0 0,4
15.07.2020 13:00:00 14,8 13,3 15,3 18,9 20,1 17,5 12 6 24 13 W 1014,5 14 0 0,9
15.07.2020 12:00:00 14,9 13,6 15,2 18,9 20,2 17,5 13 7 27 14 W 1014,4 18 0 0,5
15.07.2020 11:00:00 14,4 13,2 14,5 18,4 20,3 17,5 9 5 22 12 WSW 1014,1 12 0 0,7
15.07.2020 10:00:00 14,2 12,5 14,4 18,4 20,4 17,5 10 5 24 13 W 1013,7 20 0 0,4
15.07.2020 09:00:00 14,7 12,6 14,3 18,7 20,6 17,5 11 6 23 12 WSW 1013,4 28 0 0,3
15.07.2020 08:00:00 14,6 12,9 14,3 18,6 20,8 17,5 4 2 9 5 SW 1013,1 11 0 0,5
15.07.2020 07:00:00 14,6 13,0 14,3 18,6 21,0 17,5 4 2 6 3 SW 1013,1 16 0 0,1
15.07.2020 06:00:00 14,5 12,4 13,9 18,7 21,2 17,5 5 3 9 5 WNW 1012,8 23 0 0,0
15.07.2020 05:00:00 14,8 12,8 13,9 19,2 21,5 17,5 4 2 10 6 N 1012,7 32 0 0,1
15.07.2020 04:00:00 16,2 11,2 15,5 19,6 21,7 17,5 5 3 8 5 NW 1012,4 49 0 0,0
15.07.2020 03:00:00 16,9 10,5 16,1 19,9 22,0 17,5 5 3 17 9 NNW 1012,5 52 0 0,0
15.07.2020 02:00:00 17,2 9,4 16,5 20,2 22,3 17,5 7 4 12 6 NW 1012,6 56 0 0,0
15.07.2020 01:00:00 15,0 9,9 14,0 20,5 22,6 17,5 0 0 3 1 N 1013,0 58 0 0,0
15.07.2020 00:00:00 15,3 11,9 14,6 21,1 23,0 17,5 0 0 3 2 N 1012,8 50 0 0,0
14.07.2020 23:00:00 15,6 9,0 14,2 21,7 23,4 17,5 2 1 4 2 SSE 1012,8 75 0 0,0
14.07.2020 22:00:00 16,9 7,9 13,0 22,9 23,7 17,5 2 1 7 4 E 1012,4 67 0 0,0
14.07.2020 21:00:00 19,6 8,1 17,4 24,7 23,8 17,5 4 2 7 4 ESE 1011,8 71 10 0,0
14.07.2020 20:00:00 22,8 6,8 23,0 26,3 23,8 17,5 5 3 13 7 SW 1011,2 75 54 0,0
14.07.2020 19:00:00 23,9 6,8 26,6 27,2 23,7 17,5 2 1 6 3 E 1011,4 75 22 0,0
14.07.2020 18:00:00 23,3 5,9 24,1 28,2 23,4 17,5 3 2 11 6 W 1011,8 62 3 0,0
14.07.2020 17:00:00 23,6 5,2 25,2 30,1 22,8 17,5 5 3 14 8 SW 1012,1 50 49 0,0
14.07.2020 16:00:00 23,0 5,1 27,2 29,2 22,2 17,5 8 4 15 8 SSW 1012,6 62 29 0,0
14.07.2020 15:00:00 22,1 5,7 24,4 29,3 21,4 17,5 10 6 19 10 N 1013,2 75 37 0,0
14.07.2020 14:00:00 23,2 7,0 28,9 27,3 20,7 17,5 10 5 19 11 ESE 1013,5 75 42 0,0
14.07.2020 13:00:00 22,2 5,2 27,3 25,3 20,2 17,5 7 4 14 8 S 1014,3 56 52 0,0
14.07.2020 12:00:00 20,9 6,6 22,9 22,1 19,8 17,5 3 2 13 7 WNW 1015,0 60 2 0,0
14.07.2020 11:00:00 20,7 6,8 22,9 21,6 19,5 17,5 9 5 17 9 S 1015,5 68 20 0,0
14.07.2020 10:00:00 19,9 8,5 21,3 20,6 19,3 17,5 8 4 13 7 S 1016,0 56 44 0,0
14.07.2020 09:00:00 17,8 10,0 18,9 18,2 19,3 17,5 2 1 8 4 SW 1016,5 75 47 0,0
14.07.2020 08:00:00 12,6 8,7 13,3 16,8 19,4 17,5 7 4 8 5 NNE 1017,7 53 51 0,0
14.07.2020 07:00:00 11,2 8,3 10,7 15,6 19,8 17,5 2 1 9 5 E 1018,1 48 35 0,0
14.07.2020 06:00:00 8,5 7,3 7,3 15,5 20,1 17,5 2 1 7 4 ENE 1018,8 40 0 0,0
14.07.2020 05:00:00 8,3 6,9 6,7 15,9 20,6 17,5 0 0 3 1 N 1018,8 45 0 0,0
14.07.2020 04:00:00 8,9 7,0 6,2 16,4 21,0 17,5 0 0 3 1 N 1019,1 55 0 0,0
14.07.2020 03:00:00 9,5 7,5 6,7 17,2 21,5 17,5 2 1 4 2 ENE 1019,4 55 0 0,0
14.07.2020 02:00:00 10,3 7,5 8,4 17,9 21,9 17,5 0 0 2 1 N 1019,6 66 0 0,0
14.07.2020 01:00:00 10,2 7,4 7,8 18,5 22,5 17,5 3 1 8 5 NNW 1019,8 54 0 0,0
14.07.2020 00:00:00 10,9 8,3 8,1 19,5 23,0 17,5 0 0 5 3 N 1020,0 54 0 0,0
13.07.2020 23:00:00 12,6 8,8 8,9 20,8 23,4 17,5 2 1 4 2 NNE 1019,7 63 0 0,0
13.07.2020 22:00:00 14,2 8,0 10,1 22,5 23,8 17,5 2 1 6 3 ENE 1019,5 65 0 0,0
13.07.2020 21:00:00 17,9 7,8 14,7 24,5 24,0 17,5 3 2 10 5 ESE 1018,7 66 37 0,0
13.07.2020 20:00:00 19,4 7,3 17,9 26,3 24,0 17,5 7 4 20 11 ESE 1018,6 67 45 0,0
13.07.2020 19:00:00 22,6 6,1 25,7 27,8 23,8 17,5 8 5 16 9 SE 1018,2 73 56 0,0
13.07.2020 18:00:00 22,0 7,1 24,5 28,4 23,5 17,5 6 3 21 11 E 1018,8 75 38 0,0
13.07.2020 17:00:00 22,4 5,3 26,3 29,1 23,1 17,5 11 6 23 13 SE 1019,2 62 42 0,0
13.07.2020 16:00:00 22,0 6,1 24,7 29,8 22,5 17,5 11 6 31 17 SE 1019,7 75 38 0,0
13.07.2020 15:00:00 21,6 4,8 27,0 29,9 21,8 17,5 8 4 28 15 SE 1020,2 75 51 0,0
13.07.2020 14:00:00 21,2 5,5 26,1 29,1 21,0 17,5 13 7 28 15 ESE 1021,0 55 58 0,0
13.07.2020 13:00:00 21,7 6,8 27,6 27,7 20,2 17,5 10 5 35 19 ENE 1021,4 55 59 0,0
13.07.2020 12:00:00 20,6 4,6 25,3 25,3 19,6 17,5 15 8 34 19 E 1022,1 54 57 0,0
13.07.2020 11:00:00 19,9 6,1 22,9 23,1 19,1 17,5 15 8 24 13 E 1022,6 64 59 0,0
13.07.2020 10:00:00 18,6 7,7 22,1 21,0 18,7 17,5 9 5 16 9 E 1023,0 73 60 0,0
13.07.2020 09:00:00 16,8 8,0 19,2 18,2 18,7 17,5 4 2 11 6 E 1023,7 61 60 0,0
13.07.2020 08:00:00 13,6 7,2 15,1 16,0 18,8 17,5 8 5 11 6 E 1024,3 66 60 0,0
13.07.2020 07:00:00 10,8 6,8 10,4 14,6 19,1 17,5 3 2 8 4 NE 1024,9 51 56 0,0
13.07.2020 06:00:00 7,7 6,0 5,2 14,4 19,6 17,5 3 2 8 4 SSW 1025,4 66 0 0,0
13.07.2020 05:00:00 7,5 5,7 5,4 15,0 20,0 17,5 0 0 6 3 N 1025,5 55 0 0,0
13.07.2020 04:00:00 8,0 6,0 5,6 15,6 20,4 17,5 3 1 5 3 WNW 1025,6 60 0 0,0
13.07.2020 03:00:00 9,1 6,1 7,0 16,3 20,9 17,5 2 1 13 7 WSW 1025,6 59 0 0,0
13.07.2020 02:00:00 11,6 5,8 7,6 17,0 21,4 17,5 7 4 13 7 E 1025,2 75 0 0,0
13.07.2020 01:00:00 12,7 5,9 9,4 17,8 21,9 17,5 9 5 15 8 ENE 1025,1 68 0 0,0
13.07.2020 00:00:00 13,4 5,6 9,4 18,7 22,4 17,5 9 5 13 7 ENE 1025,3 70 0 0,0
12.07.2020 23:00:00 14,1 5,5 9,6 19,9 22,8 17,5 9 5 12 7 ENE 1025,3 73 0 0,0
12.07.2020 22:00:00 14,6 5,6 10,3 21,4 23,2 17,5 9 5 12 7 ENE 1025,2 75 10 0,0
12.07.2020 21:00:00 17,4 5,6 15,1 23,3 23,5 17,5 8 5 14 8 E 1024,2 75 55 0,0
12.07.2020 20:00:00 19,1 4,6 18,1 25,0 23,5 17,5 11 6 17 9 E 1024,0 75 31 0,0
12.07.2020 19:00:00 19,6 4,7 19,3 26,6 23,4 17,5 6 3 24 13 E 1024,1 75 15 0,0
12.07.2020 18:00:00 21,5 4,0 25,3 28,3 23,0 17,5 10 5 21 11 E 1023,8 68 43 0,0
12.07.2020 17:00:00 20,9 3,6 24,3 29,6 22,4 17,5 14 8 23 12 E 1024,0 75 46 0,0
12.07.2020 16:00:00 21,2 5,0 25,0 30,3 21,7 17,5 12 7 23 12 ENE 1024,2 71 49 0,0
12.07.2020 15:00:00 20,7 3,8 24,6 29,2 20,9 17,5 11 6 24 13 ESE 1024,5 61 57 0,0
12.07.2020 14:00:00 20,1 3,4 23,6 26,7 20,3 17,4 9 5 22 12 N 1024,8 51 55 0,0
12.07.2020 13:00:00 18,5 5,0 20,7 23,8 19,8 17,4 8 5 19 10 NNE 1025,4 71 26 0,0
12.07.2020 12:00:00 18,0 6,1 19,6 23,2 19,3 17,4 12 6 19 10 E 1025,5 57 26 0,0
12.07.2020 11:00:00 18,5 7,3 23,7 22,4 18,8 17,4 13 7 22 12 NE 1025,2 75 54 0,0
12.07.2020 10:00:00 17,3 9,3 20,3 19,9 18,5 17,4 10 6 19 10 ENE 1025,6 75 60 0,0
12.07.2020 09:00:00 15,0 8,0 17,1 17,4 18,4 17,4 8 4 15 8 E 1025,9 65 60 0,0
12.07.2020 08:00:00 12,8 7,0 14,6 15,5 18,6 17,4 6 3 10 5 NNE 1026,3 63 60 0,0
12.07.2020 07:00:00 9,7 6,9 9,2 14,0 19,0 17,4 0 0 4 2 N 1026,4 65 58 0,0
12.07.2020 06:00:00 6,8 6,1 4,3 13,8 19,4 17,4 2 1 3 2 N 1026,6 55 0 0,0
12.07.2020 05:00:00 7,2 6,3 4,9 14,5 19,8 17,4 2 1 4 2 NNW 1026,2 47 0 0,0
12.07.2020 04:00:00 8,3 7,1 5,6 15,3 20,2 17,4 0 0 3 1 N 1025,9 59 0 0,0
12.07.2020 03:00:00 9,6 7,9 8,2 16,1 20,6 17,4 1 1 2 1 SSE 1025,8 60 0 0,0
12.07.2020 02:00:00 9,9 8,1 8,7 16,6 21,0 17,4 3 1 4 2 E 1025,8 69 0 0,0
12.07.2020 01:00:00 10,0 8,2 7,6 17,0 21,5 17,4 2 1 4 2 N 1025,9 65 0 0,0
12.07.2020 00:00:00 11,1 7,6 8,9 18,0 22,0 17,4 3 2 4 2 ENE 1025,6 75 0 0,0
11.07.2020 23:00:00 11,4 8,0 8,3 18,7 22,4 17,4 3 2 7 4 NNW 1025,5 66 0 0,0
11.07.2020 22:00:00 14,4 6,5 11,4 20,2 22,8 17,4 7 4 13 7 N 1024,6 64 12 0,0
11.07.2020 21:00:00 16,5 5,6 15,9 21,8 23,0 17,4 9 5 22 12 N 1023,4 66 57 0,0
11.07.2020 20:00:00 18,6 5,7 19,6 23,4 23,1 17,3 11 6 22 12 NNW 1022,6 75 49 0,0
11.07.2020 19:00:00 19,3 5,9 20,1 25,3 23,0 17,3 10 6 24 13 NNW 1022,2 66 59 0,0
11.07.2020 18:00:00 19,2 5,3 20,9 26,5 22,7 17,3 14 8 26 14 NNW 1022,2 62 54 0,0
11.07.2020 17:00:00 18,7 6,3 20,1 26,5 22,4 17,3 11 6 29 15 NNW 1021,8 57 39 0,0
11.07.2020 16:00:00 19,4 5,8 23,7 27,0 22,0 17,3 16 9 29 16 N 1021,8 61 57 0,0
11.07.2020 15:00:00 19,6 7,5 24,3 26,0 21,6 17,3 14 8 29 16 N 1021,4 58 58 0,0
11.07.2020 14:00:00 17,9 7,2 19,7 24,5 21,2 17,3 15 8 28 15 NNW 1021,8 58 42 0,0
11.07.2020 13:00:00 17,5 9,9 20,0 22,9 21,0 17,3 13 7 20 11 NNW 1021,9 75 30 0,0
11.07.2020 12:00:00 16,5 10,9 18,4 22,2 20,8 17,3 9 5 21 12 NW 1021,8 67 27 0,0
11.07.2020 11:00:00 15,7 11,5 18,7 21,1 20,6 17,3 10 5 21 11 N 1021,6 56 29 0,0
11.07.2020 10:00:00 14,3 11,1 16,3 19,5 20,7 17,3 11 6 17 9 N 1021,4 47 9 0,0
11.07.2020 09:00:00 13,4 12,0 14,5 18,1 20,9 17,3 4 2 8 5 N 1021,1 40 0 0,0
11.07.2020 08:00:00 12,8 11,7 13,2 17,8 21,2 17,3 3 2 12 6 NNE 1020,7 24 0 0,6
11.07.2020 07:00:00 12,6 12,0 12,7 17,9 21,5 17,3 5 3 13 7 N 1020,2 8 0 2,7
11.07.2020 06:00:00 12,8 11,9 12,8 18,4 21,9 17,3 6 3 17 9 N 1019,5 15 0 0,7
11.07.2020 05:00:00 13,1 11,7 12,8 19,0 22,2 17,3 8 5 14 8 N 1018,8 13 0 0,6
11.07.2020 04:00:00 13,8 12,6 13,9 19,6 22,5 17,2 3 1 9 5 ENE 1018,6 39 0 0,2
11.07.2020 03:00:00 14,7 12,1 13,8 20,2 22,8 17,2 5 3 10 5 N 1018,6 26 0 0,2
11.07.2020 02:00:00 15,5 11,6 15,1 20,7 23,2 17,2 5 3 13 7 N 1018,3 72 0 0,0
11.07.2020 01:00:00 16,2 11,1 15,7 21,3 23,5 17,2 5 3 13 7 NNW 1018,0 73 0 0,0
11.07.2020 00:00:00 16,7 11,2 16,0 21,8 23,8 17,2 3 2 8 4 NNW 1017,4 71 0 0,0
10.07.2020 23:00:00 17,5 10,4 16,8 22,4 24,2 17,2 5 3 23 13 NNW 1016,4 71 0 0,0
10.07.2020 22:00:00 18,3 10,7 17,9 23,3 24,6 17,2 14 8 23 12 NNW 1015,8 75 0 0,0
10.07.2020 21:00:00 19,2 10,9 18,6 24,3 24,8 17,2 8 5 38 20 NW 1014,9 60 6 0,0
10.07.2020 20:00:00 20,9 8,6 20,4 25,8 25,0 17,2 23 13 36 20 WNW 1014,0 60 20 0,0
10.07.2020 19:00:00 21,1 9,7 21,7 27,2 25,0 17,2 24 13 50 27 WNW 1013,6 67 41 0,0
10.07.2020 18:00:00 22,1 10,5 24,0 28,6 25,0 17,2 32 18 52 28 WNW 1013,0 55 60 0,0
10.07.2020 17:00:00 23,4 12,5 26,5 28,3 24,9 17,2 28 15 51 27 WNW 1012,1 66 23 0,0
10.07.2020 16:00:00 23,8 13,0 26,1 29,9 24,6 17,2 29 16 49 27 WNW 1011,7 52 37 0,0

tt = Température de l'air
td = dewpoint
tt 5cm = Température de l'air 5cm
tt -5cm = Température de l'air -5cm
tt -20cm = Température de l'air -20cm
tt -100cm = Température de l'air -100cm
ff = Vitesse du vent
fx = gusts
dd = Direction du vent
ppp = reduced air pressure
vv = visibility
sd = Ensoleillement
rr = Quantités de précipitations

stations d'obs. à proximité